Tracking 29799 objects as of 11-Oct-2024
HD Live streaming from Space Station
objects crossing your sky now

SHIYAN 10 02 (SY-10 02)

Track SHIYAN 10 02 (SY-10 02) now!


NORAD ID: 54878
Int'l Code: 2022-178A
Perigee: 1,257.2 km
Apogee: 39,108.0 km
Inclination: 63.8 °
Period: 717.7 minutes
Semi major axis: 26553 km
RCS: Unknown
Launch date: December 29, 2022
Source: People's Republic of China (PRC)
Launch site: Xichang Space Center, China (XSC)
Your satellite tracking list
Your tracking list is empty




NASA's NSSDC Master Catalog

Two Line Element Set (TLE):
1 54878U 22178A   24285.04179409  .00000982  00000-0  00000+0 0  9995
2 54878  63.8354  34.9198 7127236 269.1670  16.3118  2.00639775 13098
Source of the keplerian elements: AFSPC